Weather History for KETH - October, 2011

Change the Weather History Date:

Saturday, October 15, 2011

  Actual Average (K8D3) Record (K8D3)
Temperature  
Mean Temperature 45 °F 47 °F  
Max Temperature 53 °F 58 °F 90 °F (1958)
Min Temperature 37 °F 36 °F 10 °F (1937)
Degree Days  
Heating Degree Days 20 18  
Month to date heating degree days 230  
Since 1 July heating degree days 475  
Cooling Degree Days 0 0  
Month to date cooling degree days 0  
Year to date cooling degree days 523  
Moisture  
Dew Point 38 °F    
Average Humidity 74    
Maximum Humidity 93    
Minimum Humidity 54    
Precipitation  
Precipitation 0.00 in 0.07 in 1.50 in (1998)
Month to date precipitation 1.24  
Year to date precipitation 20.52  
Snow  
Snow 0.00 in - - ()
Month to date snowfall  
Since 1 July snowfall  
Snow Depth -    
Sea Level Pressure  
Sea Level Pressure 29.93 in    
Wind  
Wind Speed 9 mph (West)    
Max Wind Speed 13 mph    
Max Gust Speed 18 mph    
Visibility 10 miles    
Events      
T = Trace of Precipitation, MM = Missing Value Source: NWS Daily Summary

Daily Weather History Graph

Daily Weather History Graph

Search for Another Location

Airport or City:

Trip Planner

Search our weather history database for the weather conditions in past years. The results will help you decide how hot, cold, wet, or windy it might be!

Date:

Astronomy

Oct. 15, 2011 Rise Set
Actual Time 7:42 AM CDT 6:40 PM CDT
Civil Twilight 7:12 AM CDT 7:10 PM CDT
Nautical Twilight 6:37 AM CDT 7:45 PM CDT
Astronomical Twilight 6:03 AM CDT 8:19 PM CDT
Moon 8:25 PM CDT (10/15) 11:20 AM CDT (10/15)
Length of Visible Light 11h 58m
Length of Day
10h 58m
Waning Gibbous, 89% of the Moon is Illuminated
Oct 15
Waning Gibbous
Oct 19
Last Quarter
Oct 26
New
Nov 2
First Quarter
Nov 10
Full

Hourly Weather History & Observations

Time (CDT) Temp. Windchill Dew Point Humidity Pressure Visibility Wind Dir Wind Speed Gust Speed Precip Events Conditions
12:16 AM 44.6 °F 39.2 °F 37.4 °F 76% 29.93 in 10.0 mi West 10.4 mph - N/A   Clear
12:35 AM 42.8 °F 37.5 °F 37.4 °F 81% 29.93 in 10.0 mi West 9.2 mph - N/A   Clear
12:56 AM 42.8 °F 38.0 °F 37.4 °F 81% 29.93 in 10.0 mi West 8.1 mph - N/A   Clear
1:15 AM 42.8 °F 38.0 °F 37.4 °F 81% 29.93 in 10.0 mi West 8.1 mph - N/A   Clear
1:35 AM 42.8 °F 37.5 °F 37.4 °F 81% 29.93 in 10.0 mi West 9.2 mph - N/A   Clear
1:55 AM 42.8 °F 37.0 °F 37.4 °F 81% 29.94 in 10.0 mi West 10.4 mph - N/A   Clear
2:15 AM 42.8 °F 37.0 °F 37.4 °F 81% 29.94 in 10.0 mi West 10.4 mph - N/A   Clear
2:35 AM 42.8 °F 37.5 °F 35.6 °F 76% 29.95 in 10.0 mi West 9.2 mph - N/A   Clear
2:55 AM 41.0 °F 34.3 °F 35.6 °F 81% 29.95 in 10.0 mi West 11.5 mph - N/A   Clear
3:15 AM 41.0 °F 34.7 °F 35.6 °F 81% 29.94 in 10.0 mi West 10.4 mph - N/A   Clear
3:35 AM 41.0 °F 34.3 °F 35.6 °F 81% 29.94 in 10.0 mi West 11.5 mph 17.3 mph N/A   Clear
3:55 AM 41.0 °F 34.7 °F 35.6 °F 81% 29.94 in 10.0 mi West 10.4 mph 16.1 mph N/A   Clear
4:16 AM 41.0 °F 34.7 °F 35.6 °F 81% 29.94 in 10.0 mi West 10.4 mph - N/A   Clear
4:36 AM 39.2 °F 32.5 °F 35.6 °F 87% 29.94 in 10.0 mi West 10.4 mph - N/A   Clear
4:55 AM 39.2 °F 33.0 °F 35.6 °F 87% 29.95 in 10.0 mi West 9.2 mph - N/A   Clear
5:15 AM 39.2 °F 34.2 °F 35.6 °F 87% 29.94 in 10.0 mi West 6.9 mph - N/A   Clear
5:35 AM 39.2 °F 34.2 °F 35.6 °F 87% 29.95 in 10.0 mi West 6.9 mph - N/A   Clear
5:55 AM 39.2 °F 34.2 °F 35.6 °F 87% 29.95 in 10.0 mi West 6.9 mph - N/A   Clear
6:15 AM 39.2 °F 33.6 °F 35.6 °F 87% 29.95 in 10.0 mi West 8.1 mph - N/A   Clear
6:35 AM 37.4 °F 32.1 °F 35.6 °F 93% 29.95 in 10.0 mi WSW 6.9 mph - N/A   Clear
6:55 AM 37.4 °F 32.1 °F 35.6 °F 93% 29.95 in 10.0 mi West 6.9 mph - N/A   Clear
7:15 AM 37.4 °F 32.1 °F 35.6 °F 93% 29.95 in 10.0 mi WSW 6.9 mph - N/A   Clear
7:35 AM 37.4 °F 32.8 °F 35.6 °F 93% 29.95 in 10.0 mi West 5.8 mph - N/A   Clear
8:15 AM 39.2 °F 33.6 °F 35.6 °F 87% 29.95 in 10.0 mi West 8.1 mph - N/A   Clear
8:35 AM 39.2 °F 33.6 °F 35.6 °F 87% 29.95 in 10.0 mi West 8.1 mph - N/A   Clear
8:56 AM 41.0 °F 35.2 °F 35.6 °F 81% 29.96 in 10.0 mi West 9.2 mph - N/A   Clear
9:15 AM 42.8 °F 37.5 °F 37.4 °F 81% 29.96 in 10.0 mi West 9.2 mph - N/A   Clear
9:35 AM 44.6 °F 39.7 °F 37.4 °F 76% 29.96 in 10.0 mi West 9.2 mph - N/A   Clear
9:55 AM 44.6 °F 38.4 °F 37.4 °F 76% 29.96 in 10.0 mi West 12.7 mph - N/A   Clear
10:15 AM 46.4 °F 41.1 °F 37.4 °F 71% 29.95 in 10.0 mi WNW 11.5 mph - N/A   Clear
10:36 AM 46.4 °F 40.7 °F 37.4 °F 71% 29.95 in 10.0 mi West 12.7 mph 17.3 mph N/A   Clear
10:55 AM 48.2 °F - 39.2 °F 71% 29.95 in 10.0 mi West 12.7 mph - N/A   Clear
11:15 AM 50.0 °F - 39.2 °F 66% 29.95 in 10.0 mi West 11.5 mph - N/A   Clear
11:35 AM 51.8 °F - 39.2 °F 62% 29.95 in 10.0 mi West 10.4 mph - N/A   Clear
11:55 AM 51.8 °F - 39.2 °F 62% 29.94 in 10.0 mi West 12.7 mph 16.1 mph N/A   Clear
12:15 PM 51.8 °F - 37.4 °F 58% 29.93 in 10.0 mi West 10.4 mph - N/A   Clear
12:35 PM 51.8 °F - 37.4 °F 58% 29.93 in 10.0 mi West 12.7 mph 18.4 mph N/A   Clear
12:55 PM 53.6 °F - 37.4 °F 54% 29.92 in 10.0 mi WNW 12.7 mph 17.3 mph N/A   Clear
1:15 PM 53.6 °F - 39.2 °F 58% 29.92 in 10.0 mi WNW 9.2 mph - N/A   Scattered Clouds
1:35 PM 51.8 °F - 37.4 °F 58% 29.92 in 10.0 mi West 10.4 mph - N/A   Scattered Clouds
1:55 PM 51.8 °F - 37.4 °F 58% 29.90 in 10.0 mi WNW 11.5 mph - N/A   Scattered Clouds
2:15 PM 51.8 °F - 37.4 °F 58% 29.89 in 10.0 mi WNW 9.2 mph - N/A   Scattered Clouds
2:35 PM 51.8 °F - 37.4 °F 58% 29.89 in 10.0 mi WNW 10.4 mph - N/A   Scattered Clouds
3:15 PM 51.8 °F - 37.4 °F 58% 29.89 in 10.0 mi WNW 10.4 mph - N/A   Overcast
3:35 PM 51.8 °F - 39.2 °F 62% 29.90 in 10.0 mi WNW 10.4 mph - N/A   Scattered Clouds
3:55 PM 51.8 °F - 39.2 °F 62% 29.89 in 10.0 mi WNW 10.4 mph - N/A   Scattered Clouds
4:15 PM 51.8 °F - 39.2 °F 62% 29.89 in 10.0 mi West 8.1 mph - N/A   Mostly Cloudy
4:35 PM 51.8 °F - 39.2 °F 62% 29.89 in 10.0 mi WNW 6.9 mph - N/A   Scattered Clouds
4:55 PM 51.8 °F - 39.2 °F 62% 29.89 in 10.0 mi West 5.8 mph - N/A   Clear
5:15 PM 51.8 °F - 39.2 °F 62% 29.89 in 10.0 mi West 4.6 mph - N/A   Clear
5:36 PM 50.0 °F - 41.0 °F 71% 29.89 in 10.0 mi WNW 4.6 mph - N/A   Mostly Cloudy
5:55 PM 50.0 °F - 41.0 °F 71% 29.89 in 10.0 mi WNW 3.5 mph - N/A   Scattered Clouds
6:15 PM 50.0 °F - 41.0 °F 71% 29.88 in 10.0 mi SW 3.5 mph - N/A   Clear
6:35 PM 48.2 °F - 41.0 °F 76% 29.88 in 10.0 mi Calm Calm - N/A   Clear
6:55 PM 48.2 °F - 41.0 °F 76% 29.89 in 10.0 mi WNW 5.8 mph - N/A   Mostly Cloudy
7:15 PM 48.2 °F - 41.0 °F 76% 29.89 in 10.0 mi WNW 4.6 mph - N/A   Overcast
7:36 PM 48.2 °F - 41.0 °F 76% 29.89 in 10.0 mi West 4.6 mph - N/A Rain Light Rain
7:56 PM 48.2 °F - 41.0 °F 76% 29.89 in 10.0 mi WSW 6.9 mph - N/A   Light Drizzle
8:15 PM 48.2 °F - 39.2 °F 71% 29.90 in 10.0 mi WSW 6.9 mph - N/A   Overcast
8:35 PM 48.2 °F - 39.2 °F 71% 29.90 in 10.0 mi WSW 8.1 mph - N/A Rain Light Rain
9:15 PM 46.4 °F 43.5 °F 39.2 °F 76% 29.90 in 10.0 mi West 5.8 mph - N/A   Overcast
9:35 PM 46.4 °F 43.5 °F 39.2 °F 76% 29.90 in 10.0 mi West 5.8 mph - N/A   Overcast
9:55 PM 46.4 °F 43.5 °F 39.2 °F 76% 29.91 in 10.0 mi West 5.8 mph - N/A   Overcast
10:15 PM 46.4 °F 43.5 °F 39.2 °F 76% 29.91 in 10.0 mi West 5.8 mph - N/A   Overcast
10:36 PM 46.4 °F 42.9 °F 39.2 °F 76% 29.91 in 10.0 mi West 6.9 mph - N/A   Overcast
11:16 PM 46.4 °F 43.5 °F 39.2 °F 76% 29.91 in 10.0 mi West 5.8 mph - N/A   Overcast
11:35 PM 46.4 °F 42.4 °F 39.2 °F 76% 29.91 in 10.0 mi West 8.1 mph - N/A   Overcast
11:55 PM 44.6 °F 40.2 °F 39.2 °F 81% 29.91 in 10.0 mi West 8.1 mph - N/A   Overcast